Regional Weather Roundup
Issued by NWS

Home | Current Version | Previous Version | Graphics & Text | Print | Product List | Glossary On
Versions: 1 2 3 4 5 6 7 8 9 10 11 12 13 14 15 16 17 18 19 20 21 22 23 24 25 26 27 28 29 30 31 32 33 34 35 36 37 38 39 40 41 42 43 44 45 46 47 48 49 50
000
ASUS43 KBIS 260320
RWRND

NORTH DAKOTA REGIONAL WEATHER ROUNDUP
NATIONAL WEATHER SERVICE BISMARCK ND
1000 PM CDT SAT OCT 25 2014

NOTE: "FAIR" INDICATES FEW OR NO CLOUDS BELOW 12,000 FEET WITH NO
SIGNIFICANT WEATHER AND/OR OBSTRUCTIONS TO VISIBILITY.


NDZ001>003-009>011-017-260400-
NORTHWEST NORTH DAKOTA

CITY           SKY/WX    TMP DP  RH WIND       PRES   REMARKS
WILLISTON      PTCLDY    54  31  41 SE10G17   29.83F
MINOT          CLEAR     42  28  57 SE6       29.91F
MINOT AFB      CLEAR     40  30  67 SE7       29.91F
$$

NDZ018>021-031>035-040>046-260400-
SOUTHWEST NORTH DAKOTA

CITY           SKY/WX    TMP DP  RH WIND       PRES   REMARKS
BISMARCK       CLEAR     42  30  62 SE5       29.97F
DICKINSON      CLEAR     51  30  44 SE18G25   29.85F
GARRISON         N/A     47  31  53 SE6       29.92F
HETTINGER ARPT CLEAR     51  30  44 SE20G25   29.89F
$$

NDZ004>008-012>016-024-026-027-054-260400-
NORTHEAST NORTH DAKOTA

CITY           SKY/WX    TMP DP  RH WIND       PRES   REMARKS
GRAND FORKS    CLEAR     41  25  53 SW6       30.00S
GRND FRKS AFB  CLEAR     37  26  63 W5        30.00F
DEVILS LAKE    PTCLDY    37  27  65 SE3       29.97F
$$

NDZ022-023-025-028>030-036>039-047>053-260400-
SOUTHEAST NORTH DAKOTA

CITY           SKY/WX    TMP DP  RH WIND       PRES   REMARKS
FARGO          CLEAR     41  23  48 S5        30.03S
JAMESTOWN      CLEAR     42  27  55 SE5       30.01F
$$




USA.gov is the U.S. government's official web portal to all federal, state and local government web resources and services.